Vertical_Velocity
0 -2 -1 -1 -1 -3 4 -6 -5 7 -5 -1 0 -5 -4 8 10 -2 -8 2 1 -2 -3 2 -2 2 -2 -1 -1 1 3 -2 -3 -4 -2 -3 -2 -0 1 -0 -2 -1 -1
5 -1 -1 -0 -1 -1 10 -6 7 -6 -2 1 2 -0 -7 -12 11 11 -2 -3 0 -1 -4 -0 3 4 -0 1 1 2 0 -3 -4 -1 -2 -0 -1 -2 -3 -2 -1 -2 -2
5 -1 -1 -3 2 -1 6 -1 -3 3 2 -1 -5 3 -2 -3 -10 2 -1 -4 -2 2 1 3 6 -2 -2 0 2 0 1 1 0 -0 -0 -1 0 -0 0 -1 -0 -0 -1
3 1 -2 3 -3 3 -5 -2 -2 1 -4 -3 -6 3 6 6 -13 21 -1 -5 -1 -1 1 2 -2 -7 -0 6 2 0 1 0 0 1 1 -0 -0 0 -1 -2 -2 -1 -2
1 2 1 4 10 7 3 5 -6 2 -4 -1 6 -0 -1 -1 5 1 -3 -1 1 -1 -2 8 -1 1 19 3 -3 -4 -1 1 1 -0 -1 -2 -2 -1 -0 -1 -1 -2 -1
2 2 1 2 4 2 6 3 -2 1 -1 -5 3 2 0 0 5 -1 -5 0 -0 -0 2 2 -1 7 -1 1 -3 -1 -1 -2 0 0 -1 -1 0 1 0 -0 -1 -1 -1
3 4 2 3 2 -0 -1 -10 4 1 7 4 -2 9 5 4 6 7 -1 -2 -0 0 0 1 1 2 -0 -1 -1 -1 0 0 0 1 1 0 -0 -1 -1 -1 -1 -1 -1
3 3 1 3 1 5 -0 -3 -8 -2 9 -0 -5 1 1 -1 -2 3 4 -1 -1 0 1 -2 2 2 2 -1 -4 -1 -0 0 1 0 0 0 0 -1 -1 -1 -2 -1 -2
-1 0 4 3 5 2 -1 1 -4 -6 1 -13 2 -10 -2 -1 -3 2 -5 7 -2 -3 1 2 -1 -1 -2 -4 -1 -2 -2 -1 -1 -0 0 0 -1 -0 0 -0 -1 -1 -1
-1 1 3 0 4 5 7 -7 6 3 -8 -10 4 -10 -0 -3 -6 -1 1 -0 5 -0 -6 6 -0 -0 -0 -5 0 -2 -1 -1 -1 -0 -0 -1 -0 -0 -1 -1 -1 -2 -2
2 -0 4 3 1 -6 4 1 1 -4 2 5 1 -4 2 2 -2 -6 -4 -5 -3 2 2 -1 1 2 -0 -4 -2 -1 -0 -1 -1 0 -0 -0 -1 -0 -1 -1 -1 -1 -1
-1 -0 1 2 5 11 0 1 -5 2 1 1 7 3 -1 -8 -8 -18 1 -1 -2 -4 -2 5 -2 -3 -2 -2 -0 -0 0 0 -1 -1 -0 -0 -2 -0 -0 -1 -1 -0 -1
-1 -1 -1 -1 -0 2 2 8 -4 3 -1 0 0 -1 1 -3 4 12 -1 5 -9 -1 -4 -5 -0 -4 -3 0 -0 -1 -0 -0 -0 -0 -0 1 -0 0 -0 -0 -3 0 -1
-0 -0 -2 1 -1 -3 -1 5 8 3 7 0 -1 -0 -3 2 6 1 -5 -5 1 8 0 -9 -2 -3 -2 -2 0 1 -1 -0 -1 1 1 -0 -2 -1 -1 0 -0 -1 -0
-4 0 -1 -2 -2 -1 9 15 -3 4 2 3 -3 -0 4 -4 -5 5 4 -6 -2 -1 -10 -4 -6 -1 -1 3 -1 -0 -2 -0 1 1 0 -0 -2 -1 -1 1 -0 -0 -2
1 -1 -1 -1 2 0 2 3 -2 2 2 5 -1 4 0 4 0 4 -3 -1 -8 12 1 1 -7 -1 1 2 2 4 -1 3 0 -0 -0 -1 -1 -0 -1 -2 -1 1 -2
-2 2 1 -2 1 2 -1 1 -3 -3 -3 -3 1 4 9 4 -1 1 2 4 1 2 7 9 -1 -5 -3 -0 1 5 -2 1 -0 -0 -1 -0 -0 -0 1 -1 -2 -2 -1
2 3 2 -3 -0 -0 5 -1 2 2 2 3 -2 6 -3 13 14 -1 -1 -0 -6 -5 4 7 5 -4 -4 2 -0 2 0 2 -1 0 -0 0 1 -0 -1 -1 1 -3 -2
1 -3 4 4 3 -0 -1 3 2 -4 0 -6 -3 -2 -2 1 0 11 -4 1 -1 3 1 3 3 0 -1 -2 -2 2 -1 1 2 -1 -1 1 -1 -2 -1 -0 -0 -2 1
-1 -2 1 3 1 -0 0 -1 -2 -1 4 -4 -5 -1 -0 5 1 5 2 -0 3 3 -6 7 3 2 6 1 3 2 -1 -2 2 -1 -1 2 1 -1 -2 -1 -4 -0 -0
2 2 -0 3 1 -1 -3 1 -1 -1 2 4 3 1 -3 -1 -3 2 -0 -2 3 7 2 8 9 3 0 -4 -12 2 1 4 3 -3 2 -4 -3 -0 3 -1 0 -1 1
0 2 -0 -0 1 -1 -0 1 1 -1 8 2 2 0 -0 5 1 7 3 7 -3 2 -5 7 -5 -8 -2 -3 0 -1 4 -1 -11 -6 0 2 -1 -3 -1 -2 -3 0 3
0 -1 -3 -0 0 -3 1 -1 2 4 -2 -1 1 -2 -3 -1 5 7 11 20 11 13 -1 16 -4 -3 -2 -9 -2 3 -2 1 -2 2 -1 -1 3 -1 -1 -2 1 -5 -1
-1 -1 -2 0 1 -3 -0 -0 2 6 2 0 -1 -4 -0 1 -3 8 11 3 -2 1 1 2 -5 7 15 17 -3 17 15 5 4 1 1 -0 -1 0 -2 0 1 -1 -4
-1 -0 0 -2 -2 -1 -3 1 1 1 -3 -3 1 3 4 5 4 14 11 11 5 2 9 -6 18 6 12 16 -4 1 -5 1 1 -0 -3 3 -2 0 -3 -1 -4 -2 -1
-2 -2 3 -0 0 -3 -2 1 -1 -2 -1 1 0 -1 -2 0 12 4 1 2 4 0 -3 -3 5 -4 -18 4 1 2 7 -1 0 4 -3 0 -0 1 -2 -3 -1 -2 2
Height
1504 1509 1512 1514 1516 1518 1522 1525 1528 1531 1533 1536 1539 1542 1545 1548 1551 1550 1551 1553 1554 1556 1558 1559 1560 1561 1562 1563 1563 1565 1566 1567 1568 1568 1569 1569 1569 1568 1567 1567 1566 1565 1564
1500 1504 1509 1512 1515 1518 1522 1523 1527 1528 1531 1535 1538 1540 1543 1546 1549 1552 1550 1553 1554 1557 1558 1560 1561 1562 1563 1563 1564 1565 1566 1566 1567 1568 1568 1569 1568 1568 1568 1567 1566 1565 1564
1496 1500 1505 1509 1512 1516 1520 1521 1524 1527 1530 1534 1536 1540 1542 1545 1548 1549 1550 1552 1555 1557 1558 1560 1561 1562 1564 1565 1565 1565 1566 1566 1567 1568 1569 1569 1568 1568 1568 1567 1566 1565 1564
1492 1497 1501 1504 1509 1512 1516 1518 1521 1525 1528 1533 1534 1538 1542 1545 1547 1548 1549 1552 1554 1556 1558 1560 1562 1562 1564 1566 1565 1566 1565 1566 1567 1568 1568 1568 1568 1567 1567 1566 1566 1565 1564
1487 1492 1496 1501 1505 1508 1512 1515 1517 1522 1526 1531 1534 1537 1540 1543 1546 1546 1547 1551 1553 1556 1557 1558 1561 1562 1563 1563 1565 1565 1565 1566 1566 1567 1567 1567 1567 1567 1567 1566 1566 1565 1564
1484 1488 1492 1496 1500 1505 1508 1511 1514 1519 1524 1528 1533 1536 1538 1541 1543 1544 1546 1549 1552 1554 1556 1557 1560 1560 1561 1563 1565 1565 1565 1565 1566 1566 1566 1567 1567 1568 1567 1566 1565 1564 1562
1480 1484 1487 1491 1495 1499 1504 1508 1513 1516 1521 1525 1529 1534 1536 1539 1541 1543 1543 1547 1550 1552 1554 1556 1558 1559 1560 1562 1564 1564 1564 1565 1565 1566 1566 1566 1567 1567 1566 1565 1564 1562 1561
1476 1479 1482 1486 1490 1494 1500 1502 1507 1513 1518 1520 1523 1530 1533 1536 1537 1540 1542 1544 1547 1550 1552 1554 1556 1558 1559 1561 1562 1562 1563 1564 1564 1565 1565 1566 1566 1565 1565 1564 1563 1561 1560
1471 1475 1478 1482 1485 1490 1494 1498 1501 1506 1511 1515 1519 1525 1528 1531 1534 1536 1539 1542 1543 1546 1549 1551 1553 1555 1557 1558 1560 1560 1561 1562 1563 1563 1564 1564 1564 1564 1563 1562 1561 1560 1559
1466 1470 1474 1477 1482 1485 1488 1493 1497 1501 1506 1507 1513 1518 1521 1524 1528 1533 1535 1538 1541 1542 1545 1547 1549 1551 1553 1555 1557 1558 1559 1560 1561 1562 1562 1562 1563 1562 1562 1561 1560 1558 1557
1462 1466 1470 1474 1477 1481 1484 1487 1491 1495 1499 1503 1505 1510 1515 1517 1521 1526 1528 1533 1538 1539 1540 1543 1545 1547 1549 1551 1553 1555 1556 1557 1559 1560 1560 1560 1560 1560 1560 1559 1558 1556 1555
1458 1461 1465 1469 1473 1475 1479 1483 1487 1490 1493 1497 1501 1504 1507 1507 1508 1516 1524 1524 1529 1533 1536 1538 1540 1543 1544 1546 1549 1551 1552 1553 1555 1556 1557 1557 1557 1558 1557 1556 1555 1554 1553
1453 1457 1460 1465 1468 1471 1475 1478 1481 1484 1487 1491 1494 1498 1502 1505 1510 1512 1514 1519 1523 1529 1530 1533 1534 1534 1537 1540 1543 1546 1548 1549 1551 1552 1553 1554 1555 1555 1554 1553 1552 1551 1550
1449 1453 1456 1459 1463 1466 1469 1472 1475 1479 1482 1484 1488 1492 1495 1499 1504 1506 1509 1511 1521 1523 1522 1524 1526 1526 1530 1534 1537 1540 1543 1545 1546 1548 1549 1550 1550 1551 1551 1550 1549 1548 1547
1446 1449 1451 1454 1457 1461 1463 1465 1471 1473 1476 1479 1481 1485 1489 1492 1496 1501 1503 1507 1511 1514 1513 1516 1518 1519 1522 1527 1530 1533 1536 1539 1541 1543 1544 1546 1546 1547 1547 1546 1546 1545 1543
1441 1443 1446 1449 1452 1454 1458 1461 1463 1467 1470 1472 1475 1478 1480 1484 1488 1492 1497 1500 1506 1509 1508 1509 1510 1514 1516 1520 1524 1527 1529 1533 1536 1538 1540 1541 1542 1542 1542 1542 1542 1541 1540
1436 1438 1441 1443 1446 1450 1452 1455 1457 1460 1462 1466 1469 1471 1473 1476 1479 1484 1488 1492 1495 1501 1505 1503 1504 1508 1511 1514 1517 1520 1522 1526 1530 1532 1534 1536 1537 1537 1537 1538 1537 1537 1536
1432 1433 1436 1438 1441 1443 1446 1448 1450 1452 1455 1457 1461 1464 1466 1470 1471 1474 1479 1481 1486 1493 1498 1498 1497 1501 1505 1508 1511 1514 1516 1520 1523 1527 1529 1531 1531 1532 1533 1533 1532 1531 1530
1427 1429 1430 1432 1434 1437 1438 1440 1442 1444 1446 1449 1452 1454 1457 1459 1462 1463 1467 1473 1476 1481 1487 1491 1492 1494 1498 1502 1505 1508 1510 1515 1517 1520 1523 1525 1525 1526 1528 1528 1527 1526 1525
1423 1423 1423 1424 1427 1429 1431 1432 1434 1435 1436 1438 1441 1443 1446 1448 1449 1456 1454 1462 1465 1469 1476 1480 1486 1488 1490 1496 1499 1501 1504 1507 1511 1513 1517 1518 1520 1521 1522 1522 1521 1520 1520
1419 1418 1418 1419 1420 1422 1423 1424 1425 1425 1427 1428 1429 1431 1433 1436 1438 1444 1444 1450 1454 1459 1464 1470 1478 1480 1483 1487 1491 1494 1498 1502 1505 1508 1509 1512 1514 1516 1516 1516 1515 1515 1514
1415 1414 1413 1412 1412 1414 1415 1416 1418 1418 1417 1417 1417 1419 1422 1425 1428 1431 1434 1439 1442 1447 1454 1460 1467 1470 1476 1481 1485 1488 1491 1494 1499 1501 1504 1506 1507 1508 1510 1509 1510 1509 1509
1411 1409 1408 1407 1406 1406 1408 1408 1409 1408 1408 1408 1409 1410 1413 1415 1418 1421 1425 1429 1432 1439 1447 1453 1455 1463 1468 1473 1479 1481 1484 1487 1489 1493 1498 1500 1502 1502 1503 1503 1503 1504 1505
1406 1405 1404 1402 1400 1400 1400 1400 1401 1400 1398 1399 1401 1403 1404 1407 1409 1412 1417 1422 1427 1432 1438 1443 1450 1456 1462 1466 1470 1475 1477 1481 1484 1488 1492 1494 1496 1496 1497 1499 1498 1497 1499
1402 1401 1399 1397 1395 1394 1394 1393 1394 1393 1392 1393 1395 1396 1399 1400 1402 1405 1410 1415 1421 1426 1430 1437 1443 1448 1454 1460 1464 1468 1470 1474 1479 1482 1486 1488 1490 1491 1493 1493 1491 1492 1492
1398 1395 1393 1391 1390 1388 1388 1387 1387 1387 1387 1388 1390 1393 1396 1398 1400 1403 1405 1409 1414 1419 1424 1430 1436 1442 1448 1455 1458 1462 1466 1469 1473 1476 1481 1486 1486 1486 1488 1487 1486 1485 1486